Location: Valdosta
(30.8330°N, 83.2790°W)
Time: 18:24:18
(UTC-04:00)

Amateur Radio Satellites - All Passes

Search period start: 25 September 2017 17:54
Search period end: 26 September 2017 17:54
Location: Valdosta, 30.8330°N, 83.2790°W

Satellite Date Start Highest point End Downlink Frequencies (MHz)
Time Altitude Azimuth
CUBESAT XI-V 25 Sep 17:55:45 18:00:22 87° 281° (WNW) 18:04:57 437.345
XW-2B 25 Sep 17:57:48 17:58:57 11° 69° (ENE) 18:00:06 145.730 - 145.750
NUDT-PHONESAT 25 Sep 18:11:47 18:13:05 12° 69° (ENE) 18:14:24 437.300
ITUPSAT 1 25 Sep 18:16:08 18:17:49 12° 294° (WNW) 18:19:31 437.325
DOVE 4 25 Sep 18:16:49 18:21:18 79° 258° (WSW) 18:25:35 437.250
XW-2C 25 Sep 18:17:20 18:20:16 21° 72° (ENE) 18:23:13 145.795 - 145.815
Tancredo 1 25 Sep 18:25:43 18:28:20 58° 132° (SE) 18:30:58 437.200
LilacSat-2 25 Sep 18:31:37 18:35:10 35° 74° (ENE) 18:38:44 437.200
JUGNU 25 Sep 18:38:16 18:42:55 23° 170° (S) 18:47:33 437.505
KAITUO 1B 25 Sep 18:41:35 18:44:58 31° 74° (ENE) 18:48:21 145.475/437.950
nSIGHT-1 25 Sep 18:51:20 18:52:10 11° 125° (SE) 18:53:01 .
BEESAT 3 25 Sep 18:55:54 18:59:10 25° 111° (ESE) 19:02:29 437.485
KKS-1 25 Sep 19:04:43 19:08:55 42° 286° (WNW) 19:13:07 437.445
XW-2D 25 Sep 19:16:31 19:20:15 52° 260° (W) 19:24:02 145.860 - 145.880
HO-68 25 Sep 19:21:54 19:28:31 43° 69° (ENE) 19:35:09 435.675
STARS 25 Sep 19:22:29 19:26:52 72° 285° (WNW) 19:31:16 437.465
CUTE-I 25 Sep 19:23:40 19:28:57 71° 258° (WSW) 19:34:15 437.470
XW-2F 25 Sep 19:27:14 19:30:50 40° 261° (W) 19:34:29 145.980 - 146.000
XW-2B 25 Sep 19:29:10 19:32:43 36° 262° (W) 19:36:17 145.730 - 145.750
CUTE 1.7 + AOD 2 25 Sep 19:39:28 19:43:29 41° 75° (ENE) 19:47:31 437.475
NUDT-PHONESAT 25 Sep 19:43:11 19:46:34 33° 262° (W) 19:50:00 437.300
ISS 25 Sep 19:49:58 19:53:09 56° 131° (SE) 19:56:21 437.550
XW-2C 25 Sep 19:51:36 19:54:19 18° 264° (W) 19:57:03 145.795 - 145.815
LilacSat-2 25 Sep 20:08:28 20:09:30 11° 267° (W) 20:10:32 437.200
SRMSAT 25 Sep 20:08:36 20:11:51 15° 164° (SSE) 20:15:07 437.500
KAITUO 1B 25 Sep 20:17:31 20:18:58 12° 266° (W) 20:20:26 145.475/437.950
STRAND 1 25 Sep 20:19:35 20:24:08 31° 98° (E) 20:28:40 437.568
nSIGHT-1 25 Sep 20:25:05 20:28:08 42° 317° (NW) 20:31:14 .
JUGNU 25 Sep 20:26:24 20:31:26 28° 180° (S) 20:36:27 437.505
CUBEBUG 2 25 Sep 20:32:04 20:36:17 84° 259° (W) 20:40:39 437.445
BEESAT 3 25 Sep 20:33:39 20:36:39 20° 305° (NW) 20:39:40 437.485
UWE-3 25 Sep 20:34:08 20:38:17 54° 76° (ENE) 20:42:35 435.000/436.395/437.385
AO-85 25 Sep 20:42:09 20:45:59 55° 299° (WNW) 20:49:49 145.980
SEEDS 25 Sep 20:42:26 20:46:34 51° 260° (W) 20:50:42 437.485
BEESAT 2 25 Sep 20:45:20 20:49:12 50° 299° (WNW) 20:53:09 435.950
XW-2A 25 Sep 20:54:47 20:58:01 43° 261° (W) 21:01:18 145.665 - 145.685
AAUSAT CUBESAT 2 25 Sep 20:57:59 21:02:09 84° 258° (WSW) 21:06:19 437.432
Oscar 11 25 Sep 21:08:38 21:12:43 42° 74° (ENE) 21:16:50 .
HO-68 25 Sep 21:10:16 21:16:14 29° 262° (W) 21:22:16 435.675
AO-73 25 Sep 21:12:01 21:16:18 70° 77° (ENE) 21:20:42 145.935
ZACube-1 25 Sep 21:16:18 21:20:36 89° 258° (WSW) 21:25:02 437.345
FO-29 25 Sep 21:17:01 21:19:56 14° 96° (E) 21:22:58 435.910
CUTE 1.7 + AOD 2 25 Sep 21:17:48 21:19:26 12° 267° (W) 21:21:03 437.475
NO-84 25 Sep 21:20:19 21:23:13 68° 231° (SW) 21:26:00 435.350 FM
ISS 25 Sep 21:28:24 21:29:51 12° 327° (NNW) 21:31:19 437.550
SRMSAT 25 Sep 21:55:43 22:00:28 25° 173° (S) 22:05:13 437.500
STRAND 1 25 Sep 21:59:02 22:03:05 24° 291° (WNW) 22:07:08 437.568
EO-88 25 Sep 22:01:44 22:04:03 16° 71° (ENE) 22:06:22 145.990 - 145.960
DELFI C3 25 Sep 22:05:08 22:08:47 37° 74° (ENE) 22:12:27 145.870
JUGNU 25 Sep 22:15:22 22:19:56 23° 190° (S) 22:24:28 437.505
Max Valier Satellite 25 Sep 22:38:30 22:42:11 80° 78° (ENE) 22:45:55 145.860
Oscar 11 25 Sep 22:47:17 22:48:58 12° 267° (W) 22:50:39 .
FO-29 25 Sep 22:59:26 23:05:06 65° 284° (WNW) 23:11:30 435.910
UNISAT 6 25 Sep 23:04:10 23:08:44 50° 100° (E) 23:13:18 437.425
PRISM 25 Sep 23:17:52 23:21:30 31° 99° (E) 23:25:07 437.425
TIGRISAT 25 Sep 23:27:02 23:31:46 86° 104° (ESE) 23:36:27 435.000
EO-88 25 Sep 23:34:36 23:37:28 22° 263° (W) 23:40:22 145.990 - 145.960
ESTCUBE 1 25 Sep 23:39:05 23:42:49 26° 71° (ENE) 23:46:33 437.505/2401.250
DELFI C3 25 Sep 23:42:42 23:43:37 11° 266° (W) 23:44:33 145.870
SRMSAT 25 Sep 23:44:10 23:49:08 28° 183° (S) 23:54:04 437.500
YUBILEINY 25 Sep 23:47:13 23:55:31 46° 79° (E) 00:03:48 435.215
SO-50 25 Sep 23:52:18 23:56:56 86° 240° (WSW) 00:01:36 436.795
PCSat 25 Sep 23:55:09 23:59:44 27° 58° (ENE) 00:04:17 145.827
AIST 2D 26 Sep 00:04:18 00:06:55 20° 96° (E) 00:09:32 435.315
JUGNU 26 Sep 00:06:16 00:08:20 12° 199° (SSW) 00:10:25 437.505
LO-87 26 Sep 00:22:10 00:25:34 48° 260° (W) 00:29:01 145.935 - 145.965
DUCHIFAT 1 26 Sep 00:42:33 00:45:26 18° 95° (E) 00:48:19 145.980
UNISAT 6 26 Sep 00:42:53 00:44:56 13° 293° (WNW) 00:46:59 437.425
PRISM 26 Sep 00:54:11 00:56:27 15° 291° (WNW) 00:58:42 437.425
POLYITAN 1 26 Sep 00:59:13 01:03:14 38° 99° (E) 01:07:12 437.675
EO-79 26 Sep 01:02:42 01:06:47 42° 99° (E) 01:10:50 145.935-145.965
SPROUT 26 Sep 01:12:34 01:16:47 73° 76° (ENE) 01:21:00 437.525
ESTCUBE 1 26 Sep 01:15:59 01:19:29 22° 264° (W) 01:23:01 437.505/2401.250
QB50P2 26 Sep 01:17:05 01:21:22 75° 102° (ESE) 01:25:38 145.880/145.840
50 SAT 26 Sep 01:17:47 01:19:04 12° 70° (ENE) 01:20:21 437.505
VELOX 1 26 Sep 01:32:36 01:37:00 89° 263° (W) 01:41:25 145.980
SRMSAT 26 Sep 01:33:32 01:37:45 20° 192° (SSW) 01:41:59 437.500
AIST 2D 26 Sep 01:37:45 01:39:53 16° 289° (WNW) 01:42:02 435.315
PCSat 26 Sep 01:38:20 01:43:03 31° 252° (WSW) 01:47:44 145.827
YUBILEINY 26 Sep 01:44:36 01:51:52 31° 274° (W) 01:59:12 435.215
O/OREOS (USA 219) 26 Sep 01:48:25 01:52:00 24° 102° (ESE) 01:55:36 437.305
NANOSAT C BR1 26 Sep 01:50:00 01:54:08 52° 285° (WNW) 01:58:16 145.865
M-CUBED/EXP-1 PRIME 26 Sep 02:14:08 02:17:20 57° 105° (ESE) 02:20:34 437.505
DUCHIFAT 1 26 Sep 02:17:24 02:21:03 28° 288° (WNW) 02:24:40 145.980
UKube-1 26 Sep 02:21:02 02:25:09 46° 74° (ENE) 02:29:17 .
Tancredo 1 26 Sep 02:23:39 02:26:12 41° 43° (NE) 02:28:44 437.200
DX 1 26 Sep 02:33:13 02:37:32 72° 258° (WSW) 02:41:51 434.975-435.025
POLYITAN 1 26 Sep 02:36:27 02:38:37 14° 291° (WNW) 02:40:46 437.675
EO-79 26 Sep 02:40:21 02:42:06 12° 292° (WNW) 02:43:50 145.935-145.965
BUGSAT 1 26 Sep 02:41:51 02:46:02 61° 284° (WNW) 02:50:12 437.445
Oscar 19 26 Sep 02:48:30 02:53:34 58° 101° (E) 02:58:36 437.125/150
50 SAT 26 Sep 02:48:35 02:51:15 23° 262° (W) 02:53:56 437.505
Gurwin Techsat 1B 26 Sep 02:54:13 02:59:15 42° 99° (E) 03:04:15 435.225
nSIGHT-1 26 Sep 02:57:16 02:59:12 15° 35° (NE) 03:01:09 .
O/OREOS (USA 219) 26 Sep 03:27:40 03:31:15 23° 295° (WNW) 03:34:52 437.305
ITUPSAT 1 26 Sep 03:37:13 03:41:32 35° 72° (ENE) 03:45:53 437.325
ISS 26 Sep 03:58:13 04:01:28 58° 44° (NE) 04:04:42 437.550
UKube-1 26 Sep 04:00:30 04:01:20 10° 266° (W) 04:02:10 .
ITAMSAT 1 26 Sep 04:00:52 04:03:45 15° 94° (E) 04:06:39 435.822/435.867
BEESAT 26 Sep 04:11:34 04:16:19 89° 257° (WSW) 04:21:07 436.000
MOZHAYETS 4 26 Sep 04:19:38 04:24:13 73° 258° (WSW) 04:28:52
Oscar 19 26 Sep 04:29:58 04:32:19 13° 295° (WNW) 04:34:39 437.125/150
nSIGHT-1 26 Sep 04:32:34 04:35:40 41° 229° (SW) 04:38:44 .
Gurwin Techsat 1B 26 Sep 04:35:12 04:38:47 19° 293° (WNW) 04:42:24 435.225
AO-7 26 Sep 04:40:16 04:48:19 53° 103° (ESE) 04:56:20 .
RS-15 26 Sep 04:51:37 05:03:08 52° 108° (ESE) 05:14:48 29.354- 29.394
CUBESAT XI-V 26 Sep 04:53:12 04:57:43 48° 74° (ENE) 05:02:13 437.345
BEESAT 3 26 Sep 04:54:18 04:58:01 39° 59° (ENE) 05:01:39 437.485
BEESAT 2 26 Sep 05:08:49 05:11:28 17° 54° (NE) 05:14:07 435.950
ITUPSAT 1 26 Sep 05:16:14 05:19:23 18° 265° (W) 05:22:34 437.325
AO-85 26 Sep 05:17:44 05:21:35 26° 57° (ENE) 05:25:40 145.980
ITAMSAT 1 26 Sep 05:38:22 05:43:23 49° 287° (WNW) 05:48:23 435.822/435.867
KKS-1 26 Sep 05:56:42 06:01:07 86° 74° (ENE) 06:05:33 437.445
STARS 26 Sep 06:13:24 06:17:34 48° 74° (ENE) 06:21:46 437.465
DOVE 4 26 Sep 06:20:25 06:24:31 40° 99° (E) 06:28:51 437.250
CUBESAT XI-V 26 Sep 06:33:17 06:35:14 12° 267° (W) 06:37:12 437.345
AO-7 26 Sep 06:33:51 06:40:36 29° 298° (WNW) 06:47:21 .
BEESAT 3 26 Sep 06:33:55 06:35:07 11° 253° (WSW) 06:36:19 437.485
BEESAT 2 26 Sep 06:45:41 06:49:14 30° 248° (WSW) 06:52:43 435.950
XW-2D 26 Sep 06:54:50 06:57:50 22° 96° (E) 07:00:48 145.860 - 145.880
AO-85 26 Sep 06:57:58 07:01:54 27° 248° (WSW) 07:06:04 145.980
RS-15 26 Sep 07:04:19 07:15:43 43° 307° (NW) 07:27:17 29.354- 29.394
XW-2F 26 Sep 07:04:45 07:07:59 27° 97° (E) 07:11:11 145.980 - 146.000
XW-2B 26 Sep 07:06:57 07:10:20 31° 98° (E) 07:13:41 145.730 - 145.750
NUDT-PHONESAT 26 Sep 07:18:33 07:21:51 30° 98° (E) 07:25:07 437.300
XW-2C 26 Sep 07:28:09 07:31:55 66° 100° (E) 07:35:39 145.795 - 145.815
STRAND 1 26 Sep 07:30:28 07:34:36 26° 70° (ENE) 07:38:44 437.568
CUTE 1.7 + AOD 2 26 Sep 07:32:25 07:33:14 10° 93° (E) 07:34:04 437.475
LilacSat-2 26 Sep 07:43:52 07:47:40 66° 283° (WNW) 07:51:24 437.200
CUTE-I 26 Sep 07:46:09 07:51:30 74° 103° (ESE) 07:56:50 437.470
KAITUO 1B 26 Sep 07:51:17 07:55:01 81° 282° (WNW) 07:58:42 145.475/437.950
STARS 26 Sep 07:53:21 07:54:06 10° 267° (W) 07:54:50 437.465
DOVE 4 26 Sep 07:59:41 08:01:54 14° 290° (WNW) 08:04:09 437.250
XW-2A 26 Sep 08:22:37 08:24:38 15° 95° (E) 08:26:37 145.665 - 145.685
CUBEBUG 2 26 Sep 08:28:09 08:32:25 33° 98° (E) 08:36:39 437.445
XW-2D 26 Sep 08:29:18 08:31:47 17° 289° (WNW) 08:34:16 145.860 - 145.880
UWE-3 26 Sep 08:29:52 08:33:07 18° 95° (E) 08:36:20 435.000/436.395/437.385
SEEDS 26 Sep 08:31:37 08:35:29 36° 98° (E) 08:39:18 437.485
XW-2F 26 Sep 08:39:50 08:41:47 14° 290° (WNW) 08:43:46 145.980 - 146.000
HO-68 26 Sep 08:42:24 08:49:37 76° 104° (ESE) 08:56:48 435.675
XW-2B 26 Sep 08:42:33 08:44:09 12° 291° (WNW) 08:45:45 145.730 - 145.750
AAUSAT CUBESAT 2 26 Sep 08:46:04 08:49:15 22° 96° (E) 08:52:25 437.432
NUDT-PHONESAT 26 Sep 08:53:54 08:55:22 12° 290° (WNW) 08:56:49 437.300
Oscar 11 26 Sep 09:03:16 09:04:52 12° 93° (E) 09:06:29 .
CUTE 1.7 + AOD 2 26 Sep 09:05:12 09:09:13 44° 285° (WNW) 09:13:11 437.475
AO-73 26 Sep 09:06:03 09:09:33 21° 95° (E) 09:12:58 145.935
FO-29 26 Sep 09:07:36 09:12:14 26° 71° (ENE) 09:16:36 435.910
STRAND 1 26 Sep 09:09:16 09:13:36 28° 263° (W) 09:17:57 437.568
ZACube-1 26 Sep 09:10:21 09:14:16 28° 97° (E) 09:18:07 437.345
RS-15 26 Sep 09:28:33 09:32:51 12° 337° (NNW) 09:37:08 29.354- 29.394
CUTE-I 26 Sep 09:29:31 09:30:50 11° 296° (WNW) 09:32:09 437.470
XW-2A 26 Sep 09:54:43 09:57:14 19° 287° (WNW) 09:59:43 145.665 - 145.685
UNISAT 6 26 Sep 09:58:17 10:01:36 22° 70° (ENE) 10:04:58 437.425
PRISM 26 Sep 10:04:00 10:05:13 11° 68° (ENE) 10:06:27 437.425
CUBEBUG 2 26 Sep 10:05:20 10:08:43 20° 290° (WNW) 10:12:07 437.445
UWE-3 26 Sep 10:05:22 10:09:32 33° 287° (WNW) 10:13:40 435.000/436.395/437.385
SEEDS 26 Sep 10:08:49 10:10:46 13° 291° (WNW) 10:12:43 437.485
Max Valier Satellite 26 Sep 10:16:03 10:17:02 11° 94° (E) 10:18:00 145.860
TIGRISAT 26 Sep 10:20:23 10:24:19 36° 73° (ENE) 10:28:22 435.000
AAUSAT CUBESAT 2 26 Sep 10:21:27 10:24:32 21° 289° (WNW) 10:27:35 437.432
HO-68 26 Sep 10:32:16 10:36:31 17° 299° (WNW) 10:40:46 435.675
Oscar 11 26 Sep 10:37:03 10:41:08 41° 285° (WNW) 10:45:11 .
AO-73 26 Sep 10:41:51 10:45:39 26° 288° (WNW) 10:49:24 145.935
ZACube-1 26 Sep 10:46:53 10:50:18 21° 290° (WNW) 10:53:41 437.345
FO-29 26 Sep 10:52:14 10:57:12 29° 261° (W) 11:01:51 435.910
NO-84 26 Sep 10:56:18 10:57:31 11° 121° (ESE) 10:58:44 435.350 FM
EO-88 26 Sep 11:07:40 11:11:09 42° 99° (E) 11:14:36 145.990 - 145.960
DELFI C3 26 Sep 11:21:30 11:25:20 57° 284° (WNW) 11:29:10 145.870
UNISAT 6 26 Sep 11:34:38 11:38:08 24° 264° (W) 11:41:43 437.425
PRISM 26 Sep 11:36:10 11:40:04 42° 260° (W) 11:43:57 437.425
Max Valier Satellite 26 Sep 11:47:33 11:50:54 32° 286° (WNW) 11:54:14 145.860
POLYITAN 1 26 Sep 11:47:45 11:50:02 14° 69° (ENE) 11:52:21 437.675
EO-79 26 Sep 11:50:53 11:53:25 16° 69° (ENE) 11:55:58 145.935-145.965
RS-15 26 Sep 11:52:46 11:54:09 10° 17° (NNE) 11:55:31 29.354- 29.394
LO-87 26 Sep 11:54:53 11:57:23 18° 96° (E) 11:59:53 145.935 - 145.965
TIGRISAT 26 Sep 11:58:48 12:01:06 14° 267° (W) 12:03:26 435.000
O/OREOS (USA 219) 26 Sep 12:03:42 12:07:07 20° 64° (ENE) 12:10:31 437.305
QB50P2 26 Sep 12:04:33 12:08:02 26° 72° (ENE) 12:11:33 145.880/145.840
AIST 2D 26 Sep 12:04:53 12:08:25 72° 78° (ENE) 12:11:58 435.315
NO-84 26 Sep 12:30:35 12:34:38 59° 311° (NW) 12:38:25 435.350 FM
NANOSAT C BR1 26 Sep 12:36:09 12:40:11 51° 75° (ENE) 12:44:17 145.865
YUBILEINY 26 Sep 12:40:47 12:49:19 63° 92° (E) 12:57:51 435.215
M-CUBED/EXP-1 PRIME 26 Sep 12:54:15 12:58:04 32° 70° (ENE) 13:01:40 437.505
DUCHIFAT 1 26 Sep 13:02:42 13:06:51 81° 258° (WSW) 13:11:04 145.980
SPROUT 26 Sep 13:04:25 13:07:27 19° 96° (E) 13:10:28 437.525
ESTCUBE 1 26 Sep 13:12:37 13:17:05 68° 284° (WNW) 13:21:30 437.505/2401.250
POLYITAN 1 26 Sep 13:21:39 13:25:28 34° 262° (W) 13:29:20 437.675
EO-79 26 Sep 13:25:09 13:28:52 31° 262° (W) 13:32:37 145.935-145.965
BUGSAT 1 26 Sep 13:25:59 13:29:45 40° 74° (ENE) 13:33:33 437.445
LO-87 26 Sep 13:28:01 13:30:39 19° 288° (WNW) 13:33:16 145.935 - 145.965
VELOX 1 26 Sep 13:28:24 13:32:05 25° 97° (E) 13:35:43 145.980
QB50P2 26 Sep 13:40:48 13:43:45 18° 264° (W) 13:46:42 145.880/145.840
O/OREOS (USA 219) 26 Sep 13:42:30 13:46:28 29° 257° (WSW) 13:50:25 437.305
Oscar 19 26 Sep 13:59:46 14:04:44 48° 73° (ENE) 14:09:44 437.125/150
SO-50 26 Sep 14:01:09 14:05:37 72° 298° (WNW) 14:10:06 436.795
RS-15 26 Sep 14:01:14 14:11:54 36° 49° (NE) 14:22:01 29.354- 29.394
Gurwin Techsat 1B 26 Sep 14:09:55 14:14:49 40° 72° (ENE) 14:19:44 435.225
50 SAT 26 Sep 14:13:35 14:16:15 22° 97° (E) 14:18:54 437.505
UKube-1 26 Sep 14:15:25 14:17:01 12° 94° (E) 14:18:37 .
DX 1 26 Sep 14:27:02 14:30:48 29° 98° (E) 14:34:34 434.975-435.025
M-CUBED/EXP-1 PRIME 26 Sep 14:29:44 14:32:24 16° 259° (W) 14:34:58 437.505
PCSat 26 Sep 14:30:24 14:35:47 75° 112° (ESE) 14:41:12 145.827
SPROUT 26 Sep 14:39:39 14:43:15 27° 288° (WNW) 14:46:52 437.525
YUBILEINY 26 Sep 14:40:15 14:46:34 22° 288° (WNW) 14:52:56 435.215
BUGSAT 1 26 Sep 15:04:28 15:05:13 10° 267° (W) 15:05:59 437.445
VELOX 1 26 Sep 15:05:02 15:08:19 21° 290° (WNW) 15:11:35 145.980
ITAMSAT 1 26 Sep 15:14:18 15:16:51 14° 65° (ENE) 15:19:24 435.822/435.867
AO-7 26 Sep 15:33:14 15:41:01 46° 67° (ENE) 15:48:47 .
Oscar 19 26 Sep 15:41:17 15:44:13 15° 266° (W) 15:47:09 437.125/150
ITUPSAT 1 26 Sep 15:44:28 15:47:02 14° 94° (E) 15:49:34 437.325
50 SAT 26 Sep 15:47:03 15:48:27 12° 290° (WNW) 15:49:50 437.505
UKube-1 26 Sep 15:49:06 15:53:09 42° 286° (WNW) 15:57:12 .
Gurwin Techsat 1B 26 Sep 15:51:07 15:54:49 19° 265° (W) 15:58:32 435.225
DX 1 26 Sep 16:03:46 16:06:43 18° 291° (WNW) 16:09:41 434.975-435.025
RS-15 26 Sep 16:13:24 16:24:47 59° 250° (WSW) 16:35:36 29.354- 29.394
BEESAT 26 Sep 16:17:19 16:21:43 35° 99° (E) 16:26:04 436.000
PCSat 26 Sep 16:17:19 16:19:42 13° 308° (NW) 16:22:05 145.827
MOZHAYETS 4 26 Sep 16:20:14 16:24:34 39° 99° (E) 16:28:51
JUGNU 26 Sep 16:36:22 16:39:19 14° 163° (SSE) 16:42:16 437.505
ITAMSAT 1 26 Sep 16:50:43 16:55:46 56° 259° (W) 17:00:50 435.822/435.867
CUBESAT XI-V 26 Sep 16:56:11 16:59:19 18° 95° (E) 17:02:25 437.345
ITUPSAT 1 26 Sep 17:20:25 17:24:58 44° 287° (WNW) 17:29:31 437.325
DOVE 4 26 Sep 17:21:28 17:24:46 21° 72° (ENE) 17:27:58 437.250
AO-7 26 Sep 17:26:31 17:33:46 33° 261° (W) 17:41:02 .
